TISAT 1

Last updated on Sat Dec 13 2025 00:03:48 GMT+0000 (Coordinated Universal Time)

1 36799U 10035E 25346.25189515 .00026444 00000+0 11105-2 0 9998 2 36799 98.0592 272.6056 0003349 133.5881 226.5632 15.23428174839165
UTC large
Height (km)
Speed (km/s)
/
Latitude / Longitude
Inclination (degrees)
Orbital Period (minutes)
Azimuth
Elevation
Range (km)
Doppler Factor

Next 0 passes for location: London (51.5072 / 0.1276)

Sorry there are no passes over London.